Weather History for Horseshoe Bay, TX

Change the Weather History Date:

Thursday, March 13, 2014

  Actual Average (KBMQ) Record (KBMQ)
Temperature  
Mean Temperature 50 °F -  
Max Temperature 68 °F 65 °F 82 °F (2002)
Min Temperature 32 °F 46 °F 34 °F (2014)
Degree Days  
Heating Degree Days 15    
Moisture  
Dew Point 25 °F    
Average Humidity 43    
Maximum Humidity 78    
Minimum Humidity 17    
Precipitation  
Precipitation 0.00 in - - ()
Sea Level Pressure  
Sea Level Pressure 30.22 in    
Wind  
Wind Speed 3 mph (South)    
Max Wind Speed 12 mph    
Max Gust Speed 18 mph    
Visibility 10 miles    
Events      
Averages and records for this station are not official NWS values.
T = Trace of Precipitation, MM = Missing Value Source: NWS Daily Summary

Daily Weather History Graph

Daily Weather History Graph

Search for Another Location

Airport:

Trip Planner

Search our weather history database for the weather conditions in past years. The results will help you decide how hot, cold, wet, or windy it might be!

Date:

Astronomy

Mar. 13, 2014 Rise Set
Actual Time 6:45 AM MDT 6:40 PM MDT
Civil Twilight 6:21 AM MDT 7:04 PM MDT
Nautical Twilight 5:53 AM MDT 7:32 PM MDT
Astronomical Twilight 5:25 AM MDT 8:00 PM MDT
Moon 4:15 PM MDT (3/13) 4:44 AM MDT (3/13)
Length of Visible Light 12h 42m
Length of Day
11h 54m
Waxing Gibbous, 92% of the Moon is Illuminated
Mar 13
Waxing Gibbous
Mar 16
Full
Mar 23
Last Quarter
Mar 30
New
Apr 7
First Quarter

Hourly Weather History & Observations

Time (MDT) Temp. Windchill Dew Point Humidity Pressure Visibility Wind Dir Wind Speed Gust Speed Precip Events Conditions
12:15 AM 38.7 °F - 26.4 °F 61% 30.30 in 10.0 mi Calm Calm - N/A   Clear
12:35 AM 38.7 °F - 26.2 °F 61% 30.30 in 10.0 mi Calm Calm - N/A   Clear
12:55 AM 37.9 °F - 26.6 °F 64% 30.29 in 10.0 mi Calm Calm - N/A   Clear
1:15 AM 38.3 °F - 26.8 °F 63% 30.30 in 10.0 mi Calm Calm - N/A   Clear
1:35 AM 36.9 °F 34.3 °F 27.5 °F 69% 30.30 in 10.0 mi South 3.5 mph - N/A   Clear
1:55 AM 37.6 °F 35.1 °F 26.6 °F 65% 30.30 in 10.0 mi South 3.5 mph - N/A   Clear
2:15 AM 37.8 °F 35.3 °F 26.6 °F 64% 30.29 in 10.0 mi South 3.5 mph - N/A   Clear
2:35 AM 36.5 °F 33.9 °F 26.8 °F 68% 30.28 in 10.0 mi South 3.5 mph - N/A   Clear
2:55 AM 35.4 °F - 27.1 °F 72% 30.28 in 10.0 mi Calm Calm - N/A   Clear
3:15 AM 34.3 °F - 27.0 °F 74% 30.28 in 10.0 mi Calm Calm - N/A   Clear
3:35 AM 34.2 °F 31.2 °F 26.6 °F 74% 30.28 in 10.0 mi SSW 3.5 mph - N/A   Clear
3:55 AM 35.1 °F 32.2 °F 26.2 °F 70% 30.28 in 10.0 mi South 3.5 mph - N/A   Clear
4:15 AM 34.9 °F 32.0 °F 26.2 °F 71% 30.29 in 10.0 mi South 3.5 mph - N/A   Clear
4:35 AM 35.2 °F - 26.1 °F 69% 30.29 in 10.0 mi Calm Calm - N/A   Clear
4:55 AM 34.0 °F 29.8 °F 26.2 °F 73% 30.30 in 10.0 mi South 4.6 mph - N/A   Clear
5:15 AM 33.8 °F 30.8 °F 26.2 °F 74% 30.30 in 10.0 mi South 3.5 mph - N/A   Clear
5:35 AM 33.1 °F 30.0 °F 26.1 °F 75% 30.30 in 10.0 mi South 3.5 mph - N/A   Clear
5:55 AM 32.4 °F - 26.1 °F 78% 30.30 in 10.0 mi Calm Calm - N/A   Clear
6:15 AM 32.0 °F - 25.7 °F 78% 30.31 in 10.0 mi Calm Calm - N/A   Clear
6:35 AM 32.0 °F 28.7 °F 25.5 °F 77% 30.31 in 10.0 mi South 3.5 mph - N/A   Clear
6:55 AM 32.0 °F - 25.7 °F 78% 30.32 in 10.0 mi Calm Calm - N/A   Clear
7:15 AM 34.0 °F 31.0 °F 26.8 °F 75% 30.32 in 10.0 mi South 3.5 mph - N/A   Clear
7:35 AM 38.8 °F - 27.9 °F 65% 30.32 in 10.0 mi Calm Calm - N/A   Clear
7:55 AM 43.5 °F - 26.8 °F 52% 30.33 in 10.0 mi Calm Calm - N/A   Clear
8:15 AM 45.0 °F - 25.2 °F 46% 30.33 in 10.0 mi Calm Calm - N/A   Clear
8:35 AM 46.6 °F - 25.2 °F 43% 30.34 in 10.0 mi Calm Calm - N/A   Clear
8:55 AM 48.2 °F - 25.2 °F 41% 30.34 in 10.0 mi Calm Calm - N/A   Clear
9:20 AM 51.4 °F - 24.6 °F 35% 30.34 in 10.0 mi Calm Calm - N/A   Clear
9:35 AM 53.4 °F - 25.9 °F 34% 30.34 in 10.0 mi NW 3.5 mph - N/A   Clear
9:55 AM 56.3 °F - 26.4 °F 32% 30.33 in 10.0 mi Calm Calm - N/A   Clear
10:15 AM 57.6 °F - 22.8 °F 26% 30.33 in 10.0 mi East 3.5 mph - N/A   Clear
10:35 AM 58.6 °F - 20.3 °F 23% 30.32 in 10.0 mi South 5.8 mph - N/A   Clear
10:55 AM 60.1 °F - 20.1 °F 21% 30.32 in 7.0 mi South 4.6 mph - N/A   Clear
11:15 AM 60.4 °F - 22.8 °F 24% 30.31 in 10.0 mi SSE 3.5 mph - N/A   Clear
11:35 AM 61.3 °F - 22.6 °F 23% 30.31 in 10.0 mi South 8.1 mph - N/A   Clear
11:55 AM 60.4 °F - 22.8 °F 24% 30.30 in 10.0 mi SW 3.5 mph - N/A   Clear
12:15 PM 62.4 °F - 24.4 °F 24% 30.28 in 10.0 mi SSE 5.8 mph - N/A   Clear
12:35 PM 63.9 °F - 22.6 °F 21% 30.27 in 10.0 mi SSW 6.9 mph - N/A   Clear
12:55 PM 64.0 °F - 21.9 °F 20% 30.26 in 10.0 mi SW 9.2 mph - N/A   Clear
1:15 PM 64.4 °F - 22.1 °F 20% 30.24 in 10.0 mi Calm Calm - N/A   Clear
1:35 PM 65.3 °F - 23.0 °F 20% 30.23 in 10.0 mi South 6.9 mph - N/A   Clear
1:55 PM 66.0 °F - 23.2 °F 20% 30.21 in 10.0 mi Calm Calm - N/A   Clear
2:15 PM 65.5 °F - 21.4 °F 19% 30.20 in 10.0 mi South 4.6 mph - N/A   Clear
2:35 PM 66.4 °F - 23.2 °F 19% 30.18 in 10.0 mi South 5.8 mph - N/A   Clear
2:55 PM 67.5 °F - 23.4 °F 19% 30.17 in 10.0 mi South 3.5 mph - N/A   Clear
3:15 PM 67.8 °F - 24.6 °F 20% 30.16 in 10.0 mi South 5.8 mph - N/A   Clear
3:35 PM 67.3 °F - 23.0 °F 19% 30.15 in 10.0 mi SSE 8.1 mph - N/A   Clear
3:55 PM 68.0 °F - 22.8 °F 18% 30.14 in 10.0 mi SSE 8.1 mph - N/A   Clear
4:15 PM 67.3 °F - 21.9 °F 18% 30.13 in 10.0 mi SSE 8.1 mph - N/A   Clear
4:35 PM 67.3 °F - 20.7 °F 17% 30.13 in 10.0 mi SSE 9.2 mph - N/A   Clear
4:55 PM 67.3 °F - 23.4 °F 19% 30.12 in 10.0 mi SSE 9.2 mph - N/A   Clear
5:15 PM 66.4 °F - 24.1 °F 20% 30.12 in 10.0 mi SSE 8.1 mph - N/A   Clear
5:35 PM 65.7 °F - 23.5 °F 20% 30.12 in 10.0 mi South 9.2 mph - N/A   Clear
5:55 PM 64.6 °F - 23.5 °F 21% 30.11 in 10.0 mi SSE 11.5 mph - N/A   Clear
6:15 PM 63.3 °F - 23.2 °F 22% 30.11 in 10.0 mi SSE 5.8 mph - N/A   Clear
6:35 PM 61.7 °F - 23.5 °F 23% 30.11 in 10.0 mi SSE 8.1 mph - N/A   Clear
6:55 PM 60.1 °F - 23.9 °F 25% 30.11 in 10.0 mi SSE 6.9 mph - N/A   Clear
7:15 PM 58.1 °F - 24.8 °F 28% 30.11 in 10.0 mi SSE 4.6 mph - N/A   Clear
7:35 PM 56.3 °F - 26.1 °F 31% 30.10 in 10.0 mi SSE 4.6 mph - N/A   Clear
7:55 PM 56.3 °F - 27.1 °F 33% 30.10 in 10.0 mi SSE 5.8 mph - N/A   Clear
8:15 PM 55.2 °F - 27.3 °F 34% 30.11 in 10.0 mi SSE 4.6 mph - N/A   Clear
8:35 PM 54.5 °F - 27.5 °F 35% 30.11 in 10.0 mi SSE 5.8 mph - N/A   Clear
8:55 PM 53.4 °F - 27.3 °F 37% 30.11 in 10.0 mi SSE 3.5 mph - N/A   Clear
9:15 PM 52.5 °F - 27.5 °F 38% 30.11 in 10.0 mi SSE 4.6 mph - N/A   Clear
9:35 PM 51.8 °F - 27.9 °F 40% 30.10 in 10.0 mi SE 3.5 mph - N/A   Clear
9:55 PM 51.1 °F - 28.0 °F 41% 30.10 in 10.0 mi ESE 3.5 mph - N/A   Clear
10:15 PM 50.5 °F - 28.0 °F 42% 30.10 in 10.0 mi Calm Calm - N/A   Clear
10:35 PM 47.3 °F - 28.9 °F 49% 30.09 in 10.0 mi Calm Calm - N/A   Clear
10:55 PM 51.3 °F - 28.9 °F 42% 30.08 in 10.0 mi SSE 4.6 mph - N/A   Clear
11:15 PM 52.7 °F - 31.3 °F 44% 30.08 in 10.0 mi SSE 6.9 mph - N/A   Clear
11:35 PM 52.7 °F - 33.1 °F 47% 30.07 in 10.0 mi South 5.8 mph - N/A   Clear
11:55 PM 53.2 °F - 36.7 °F 53% 30.07 in 10.0 mi South 11.5 mph 18.4 mph N/A   Clear